User: anonymous   Login
Location: Henham
(51.9333°N, 0.2500°E)
Time: 21:44:01
(UTC+00:00)
Language:

STARLINK-81 - Orbit

View from above orbital plane
View from above orbital plane
View from above satellite
View from above satellite

Ground track
Ground track

The orbit data is extracted from the following two-line orbital elements,

1 44292U 19029BK  19342.25001157 -.00018124  00000-0 -10248-2 0  9997
2 44292  53.0072   2.6607 0000952 125.8482 101.3549 15.12146252 31069
Epoch (UTC): 08 December 2019 06:00:01
Eccentricity: 0.0000952
inclination: 53.0072°
perigee height: 529 km
apogee height: 530 km
right ascension of ascending node: 2.6607°
argument of perigee: 125.8482°
revolutions per day: 15.12146252
mean anomaly at epoch: 101.3549°
orbit number at epoch: 3106

The dashed part of the orbit path shows where the satellite is in the earth's shadow,  

DLR